This demonstration page uses our WeatherBlox Daily Observations layout. Learn more.

Left ArrowRight Arrow

38.20091, -84.87328

Hourly Observations for August 10, 2019

Temp ( °F °C ) Dew Point ( °F °C ) Humidity (%) Winds ( mph kmh ) Pressure ( in mb ) Visibility ( mi km ) Precip ( " mm )
12:53 am 00:53 Clear 73 22.8 64 17.8 74 74 Calm 29.93 1014 10 16 0.00 0.00
1:53 am 01:53 Clear 70 21.1 64 17.8 82 82 N 3 6 29.92 1013 10 16 0.00 0.00
2:53 am 02:53 Clear 70 21.1 61 16.1 73 73 Calm 29.93 1013 10 16 0.00 0.00
3:53 am 03:53 Clear 67 19.4 60 15.6 79 79 Calm 29.92 1013 10 16 0.00 0.00
4:53 am 04:53 Clear 66 18.9 60 15.6 81 81 NNW 3 6 29.92 1013 10 16 0.00 0.00
5:53 am 05:53 Clear 65 18.3 60 15.6 84 84 Calm 29.92 1013 10 16 0.00 0.00
6:53 am 06:53 Sunny 65 18.3 59 15 81 81 Calm 29.94 1014 10 16 0.00 0.00
7:53 am 07:53 Sunny 68 20 58 14.4 70 70 N 3 6 29.97 1015 10 16 0.00 0.00
8:53 am 08:53 Sunny 72 22.2 59 15 64 64 NE 6 9 29.98 1015 10 16 0.00 0.00
9:53 am 09:53 Sunny 76 24.4 59 15 56 56 ENE 6 9 29.98 1015 10 16 0.00 0.00
10:53 am 10:53 Sunny 80 26.7 58 14.4 47 47 N 6 9 29.99 1016 10 16 0.00 0.00
11:53 am 11:53 Sunny 83 28.3 60 15.6 46 46 VRB 5 7 29.99 1016 10 16 0.00 0.00
12:53 pm 12:53 Sunny 83 28.3 60 15.6 46 46 undefined N/A 29.98 1015 10 16 0.00 0.00
1:53 pm 13:53 Sunny 86 30 60 15.6 42 42 N 7 11 29.96 1015 10 16 0.00 0.00
2:53 pm 14:53 Sunny 85 29.4 60 15.6 43 43 VRB 6 9 29.95 1014 10 16 0.00 0.00
3:53 pm 15:53 Sunny 86 30 60 15.6 42 42 NE 7 11 29.94 1014 10 16 0.00 0.00
4:53 pm 16:53 Sunny 86 30 59 15 40 40 NNW 7 11 29.94 1014 10 16 0.00 0.00
5:53 pm 17:53 Sunny 86 30 56 13.3 36 36 NNE 9 15 29.94 1014 10 16 0.00 0.00
6:53 pm 18:53 Sunny 84 28.9 55 12.8 37 37 N 7 11 29.94 1014 10 16 0.00 0.00
7:53 pm 19:53 Sunny 82 27.8 57 13.9 42 42 NNE 6 9 29.95 1014 10 16 0.00 0.00
8:53 pm 20:53 Clear 78 25.6 58 14.4 50 50 NE 3 6 29.95 1014 10 16 0.00 0.00
9:53 pm 21:53 Clear 70 21.1 60 15.6 71 71 Calm 29.97 1015 10 16 0.00 0.00
10:53 pm 22:53 Clear 68 20 60 15.6 76 76 Calm 29.98 1015 10 16 0.00 0.00
11:53 pm 23:53 Clear 66 18.9 60 15.6 81 81 NNW 3 6 29.99 1016 10 16 0.00 0.00

Powered by AerisWeather